| time (UTC) | temp F | wind direction | speed knots | gust knots | rain 1hr in | rain 24hr in | rain mn in | humidity % | barometer mb |
| 20260510030950 | 63 | 262 | 1.7 | 2.6 | 0.00 | 0.61 | 0.46 | 73 | 1009.5 |
| 20260510030048 | 63 | 244 | 0.9 | 1.7 | 0.00 | 0.63 | 0.46 | 73 | 1009.5 |
| 20260510025149 | 63 | 274 | 0.9 | 2.6 | 0.00 | 0.65 | 0.46 | 73 | 1009.6 |
| 20260510024252 | 63 | 252 | 0.9 | 2.6 | 0.00 | 0.66 | 0.46 | 73 | 1009.6 |
| 20260510023351 | 63 | 234 | 1.7 | 2.6 | 0.00 | 0.68 | 0.46 | 73 | 1009.6 |
| 20260510022449 | 63 | 238 | 0.9 | 1.7 | 0.00 | 0.70 | 0.46 | 72 | 1009.5 |
| 20260510021550 | 63 | 241 | 0.9 | 2.6 | 0.00 | 0.74 | 0.46 | 71 | 1009.5 |
| 20260510020648 | 63 | 281 | 0.9 | 0.9 | 0.00 | 0.76 | 0.46 | 72 | 1009.3 |
| 20260510015749 | 64 | 254 | 0.0 | 0.0 | 0.00 | 0.78 | 0.46 | 70 | 1009.2 |
| 20260510014850 | 64 | 217 | 0.9 | 2.6 | 0.00 | 0.80 | 0.46 | 70 | 1009.1 |
| 20260510013949 | 64 | 277 | 1.7 | 2.6 | 0.00 | 0.81 | 0.46 | 69 | 1008.9 |
| 20260510013049 | 64 | 257 | 0.0 | 0.9 | 0.00 | 0.82 | 0.46 | 69 | 1008.8 |
| 20260510012149 | 65 | 242 | 0.9 | 1.7 | 0.00 | 0.83 | 0.46 | 68 | 1008.6 |
| 20260510011250 | 65 | 246 | 1.7 | 2.6 | 0.00 | 0.84 | 0.46 | 68 | 1008.5 |
| 20260510010348 | 65 | 245 | 0.9 | 2.6 | 0.00 | 0.85 | 0.46 | 68 | 1008.4 |
| 20260510005448 | 65 | 247 | 1.7 | 2.6 | 0.00 | 0.87 | 0.46 | 68 | 1008.2 |
| 20260510004550 | 65 | 244 | 0.9 | 2.6 | 0.00 | 0.88 | 0.46 | 68 | 1008.3 |
| 20260510003648 | 66 | 294 | 0.9 | 0.9 | 0.00 | 0.89 | 0.46 | 68 | 1008.1 |
| 20260510002749 | 67 | 279 | 0.9 | 1.7 | 0.00 | 0.89 | 0.46 | 65 | 1008.0 |
| 20260510001849 | 68 | 284 | 1.7 | 2.6 | 0.00 | 0.90 | 0.46 | 62 | 1007.8 |
| 20260510000948 | 69 | 273 | 1.7 | 2.6 | 0.00 | 0.91 | 0.46 | 60 | 1007.7 |
| 20260510000048 | 70 | 265 | 1.7 | 4.3 | 0.00 | 0.91 | 0.46 | 58 | 1007.6 |
| 20260509235150 | 70 | 274 | 4.3 | 7.0 | 0.00 | 0.92 | 0.46 | 57 | 1007.5 |
| 20260509234251 | 69 | 277 | 2.6 | 4.3 | 0.00 | 0.92 | 0.46 | 58 | 1007.5 |
| 20260509233349 | 70 | 277 | 2.6 | 2.6 | 0.00 | 0.93 | 0.46 | 55 | 1007.4 |
| 20260509232450 | 70 | 268 | 2.6 | 5.2 | 0.00 | 0.95 | 0.46 | 54 | 1007.2 |
| 20260509231558 | 70 | 257 | 5.2 | 8.7 | 0.00 | 0.95 | 0.46 | 55 | 1007.2 |
| 20260509231550 | 70 | 257 | 5.2 | 8.7 | 0.00 | 0.95 | 0.46 | 55 | 1007.2 |
| 20260509230649 | 71 | 281 | 4.3 | 7.0 | 0.00 | 0.96 | 0.46 | 53 | 1007.1 |
| 20260509225749 | 71 | 254 | 6.1 | 13.0 | 0.00 | 0.96 | 0.46 | 53 | 1007.1 |
| 20260509224849 | 71 | 259 | 4.3 | 7.0 | 0.00 | 0.96 | 0.46 | 55 | 1007.0 |
| 20260509223949 | 72 | 262 | 4.3 | 2.6 | 0.00 | 0.96 | 0.46 | 53 | 1007.0 |
| 20260509223048 | 72 | 268 | 4.3 | 5.2 | 0.00 | 0.96 | 0.46 | 52 | 1006.9 |
| 20260509222150 | 73 | 279 | 4.3 | 7.0 | 0.00 | 0.96 | 0.46 | 53 | 1006.9 |
| 20260509221249 | 73 | 278 | 2.6 | 10.4 | 0.00 | 0.96 | 0.46 | 56 | 1006.9 |
| 20260509220348 | 73 | 265 | 4.3 | 7.8 | 0.00 | 0.96 | 0.46 | 59 | 1006.9 |
| 20260509215450 | 72 | 246 | 4.3 | 11.3 | 0.00 | 0.96 | 0.46 | 59 | 1006.9 |
| 20260509214549 | 72 | 272 | 4.3 | 8.7 | 0.00 | 0.96 | 0.46 | 57 | 1006.8 |
| 20260509213649 | 72 | 251 | 6.1 | 12.2 | 0.00 | 0.96 | 0.46 | 57 | 1006.8 |
| 20260509212749 | 72 | 260 | 7.0 | 11.3 | 0.00 | 0.96 | 0.46 | 57 | 1006.8 |
| 20260509211849 | 72 | 252 | 6.1 | 14.8 | 0.00 | 0.96 | 0.46 | 58 | 1006.9 |
| 20260509210949 | 73 | 251 | 6.1 | 12.2 | 0.00 | 0.96 | 0.46 | 56 | 1007.0 |
| 20260509210049 | 73 | 266 | 4.3 | 7.8 | 0.00 | 0.96 | 0.46 | 61 | 1006.9 |
| 20260509205148 | 72 | 273 | 4.3 | 7.0 | 0.00 | 0.96 | 0.46 | 59 | 1007.0 |
| 20260509204724 | 72 | 249 | 6.1 | 7.8 | 0.00 | 0.96 | 0.46 | 57 | 1007.0 |
| 20260509203825 | 72 | 260 | 2.6 | 6.1 | 0.00 | 0.96 | 0.46 | 63 | 1007.1 |
| 20260509202924 | 72 | 238 | 7.8 | 12.2 | 0.00 | 0.96 | 0.46 | 62 | 1007.3 |
| 20260509202024 | 72 | 239 | 7.0 | 10.4 | 0.00 | 0.96 | 0.46 | 62 | 1007.4 |
| 20260509201126 | 71 | 264 | 4.3 | 6.1 | 0.00 | 0.96 | 0.46 | 63 | 1007.5 |
| 20260509200225 | 71 | 238 | 2.6 | 8.7 | 0.00 | 0.96 | 0.46 | 64 | 1007.6 |
| 20260509195325 | 71 | 266 | 4.3 | 7.8 | 0.00 | 0.96 | 0.46 | 65 | 1007.7 |
| 20260509194426 | 71 | 223 | 5.2 | 10.4 | 0.00 | 0.96 | 0.46 | 66 | 1007.8 |
| 20260509193524 | 71 | 266 | 2.6 | 6.1 | 0.00 | 0.96 | 0.46 | 67 | 1007.7 |
| 20260509192624 | 70 | 263 | 5.2 | 7.0 | 0.00 | 0.96 | 0.46 | 66 | 1007.8 |
| 20260509191726 | 70 | 228 | 6.1 | 17.4 | 0.00 | 0.96 | 0.46 | 68 | 1007.8 |
| 20260509190825 | 69 | 253 | 7.0 | 7.0 | 0.00 | 0.96 | 0.46 | 68 | 1007.8 |
| 20260509185925 | 69 | 206 | 7.0 | 10.4 | 0.00 | 0.96 | 0.46 | 67 | 1007.9 |
| 20260509185024 | 69 | 239 | 6.1 | 10.4 | 0.00 | 0.96 | 0.46 | 68 | 1008.0 |
| 20260509184127 | 69 | 264 | 4.3 | 7.0 | 0.00 | 0.96 | 0.46 | 68 | 1008.0 |
| 20260509183224 | 68 | 244 | 5.2 | 11.3 | 0.00 | 0.96 | 0.46 | 70 | 1007.9 |
| 20260509182325 | 68 | 259 | 6.1 | 11.3 | 0.00 | 0.96 | 0.46 | 70 | 1008.0 |
| 20260509181424 | 68 | 225 | 7.0 | 11.3 | 0.00 | 0.96 | 0.46 | 69 | 1008.0 |
| 20260509180525 | 68 | 239 | 7.0 | 10.4 | 0.00 | 0.96 | 0.46 | 69 | 1008.0 |
| 20260509175749 | 67 | 188 | 7.0 | 10.4 | 0.00 | 0.96 | 0.46 | 69 | 1008.0 |
| 20260509175624 | 67 | 188 | 7.0 | 10.4 | 0.00 | 0.96 | 0.46 | 69 | 1008.0 |
| 20260509174724 | 67 | 243 | 7.0 | 10.4 | 0.00 | 0.96 | 0.46 | 69 | 1008.0 |
| 20260509173826 | 67 | 247 | 4.3 | 10.4 | 0.00 | 0.96 | 0.46 | 71 | 1008.3 |
| 20260509172924 | 67 | 205 | 6.1 | 13.9 | 0.00 | 0.96 | 0.46 | 70 | 1008.4 |
| 20260509172024 | 67 | 205 | 6.1 | 10.4 | 0.00 | 0.96 | 0.46 | 71 | 1008.5 |
| 20260509171125 | 66 | 257 | 6.1 | 10.4 | 0.00 | 0.96 | 0.46 | 73 | 1008.4 |
| 20260509170225 | 66 | 245 | 5.2 | 11.3 | 0.00 | 0.96 | 0.46 | 72 | 1008.4 |
| 20260509164501 | 66 | 234 | 4.3 | 8.7 | 0.00 | 0.96 | 0.46 | 75 | 1008.4 |
| 20260509164426 | 66 | 234 | 4.3 | 8.7 | 0.00 | 0.96 | 0.46 | 75 | 1008.4 |
| 20260509163526 | 66 | 253 | 6.1 | 10.4 | 0.00 | 0.96 | 0.46 | 71 | 1008.5 |
| 20260509162624 | 65 | 245 | 7.0 | 8.7 | 0.00 | 0.96 | 0.46 | 72 | 1008.5 |
| 20260509161724 | 65 | 207 | 6.1 | 10.4 | 0.00 | 0.96 | 0.46 | 70 | 1008.3 |
| 20260509160825 | 65 | 205 | 5.2 | 8.7 | 0.00 | 0.96 | 0.46 | 72 | 1008.3 |
| 20260509155927 | 64 | 252 | 4.3 | 7.8 | 0.00 | 0.96 | 0.46 | 72 | 1008.3 |
| 20260509155025 | 64 | 217 | 6.1 | 8.7 | 0.00 | 0.96 | 0.46 | 73 | 1008.3 |
| 20260509154126 | 63 | 271 | 5.2 | 2.6 | 0.00 | 0.96 | 0.46 | 75 | 1008.4 |
| 20260509153225 | 63 | 250 | 5.2 | 10.4 | 0.00 | 0.96 | 0.46 | 75 | 1008.4 |
| 20260509152324 | 63 | 217 | 2.6 | 6.1 | 0.00 | 0.96 | 0.46 | 77 | 1008.4 |
| 20260509151425 | 63 | 250 | 2.6 | 7.0 | 0.00 | 0.96 | 0.46 | 78 | 1008.5 |
| 20260509150525 | 62 | 223 | 4.3 | 6.1 | 0.00 | 0.96 | 0.46 | 78 | 1008.4 |
| 20260509145624 | 62 | 233 | 4.3 | 6.1 | 0.00 | 0.96 | 0.46 | 78 | 1008.4 |
| 20260509144726 | 62 | 277 | 2.6 | 4.3 | 0.00 | 0.96 | 0.46 | 81 | 1008.2 |
| 20260509143856 | 61 | 215 | 4.3 | 4.3 | 0.00 | 0.96 | 0.46 | 82 | 1008.3 |
| 20260509143825 | 61 | 215 | 4.3 | 4.3 | 0.00 | 0.96 | 0.46 | 82 | 1008.3 |
| 20260509142925 | 60 | 238 | 4.3 | 6.1 | 0.00 | 0.96 | 0.46 | 82 | 1008.2 |
| 20260509141125 | 58 | 186 | 4.3 | 5.2 | 0.00 | 0.96 | 0.46 | 84 | 1008.1 |
| 20260509140226 | 58 | 234 | 2.6 | 7.0 | 0.00 | 0.96 | 0.46 | 86 | 1008.0 |
| 20260509135324 | 58 | 245 | 0.9 | 2.6 | 0.00 | 0.96 | 0.46 | 87 | 1008.0 |
| 20260509134456 | 57 | 218 | 1.7 | 5.2 | 0.00 | 0.96 | 0.46 | 87 | 1008.0 |
| 20260509134425 | 57 | 218 | 1.7 | 5.2 | 0.00 | 0.96 | 0.46 | 87 | 1008.0 |
| 20260509133555 | 57 | 180 | 4.3 | 5.2 | 0.00 | 0.96 | 0.46 | 88 | 1008.0 |
| 20260509133524 | 57 | 180 | 4.3 | 5.2 | 0.00 | 0.96 | 0.46 | 88 | 1008.0 |
| 20260509132624 | 56 | 218 | 0.9 | 2.6 | 0.00 | 0.96 | 0.46 | 91 | 1008.1 |
| 20260509131757 | 55 | 206 | 1.7 | 4.3 | 0.00 | 0.96 | 0.46 | 90 | 1008.2 |
| 20260509131724 | 55 | 206 | 1.7 | 4.3 | 0.00 | 0.96 | 0.46 | 90 | 1008.2 |
| 20260509130824 | 55 | 234 | 1.7 | 2.6 | 0.00 | 0.96 | 0.46 | 91 | 1008.3 |
| 20260509125925 | 54 | 230 | 2.6 | 4.3 | 0.00 | 0.96 | 0.46 | 91 | 1008.2 |
| 20260509124125 | 54 | 258 | 2.6 | 6.1 | 0.00 | 0.96 | 0.46 | 91 | 1008.4 |
| 20260509123225 | 54 | 234 | 4.3 | 5.2 | 0.00 | 0.96 | 0.46 | 91 | 1008.3 |
| 20260509122325 | 54 | 229 | 2.6 | 5.2 | 0.00 | 0.96 | 0.46 | 91 | 1008.4 |
| 20260509121425 | 53 | 237 | 2.6 | 6.1 | 0.00 | 0.96 | 0.46 | 92 | 1008.3 |
| 20260509115625 | 53 | 258 | 0.9 | 1.7 | 0.00 | 0.96 | 0.46 | 92 | 1008.3 |
| 20260509114756 | 53 | 233 | 0.0 | 1.7 | 0.00 | 0.96 | 0.46 | 92 | 1008.1 |
| 20260509114725 | 53 | 233 | 0.0 | 1.7 | 0.00 | 0.96 | 0.46 | 92 | 1008.1 |
| 20260509113855 | 52 | 155 | 0.0 | 0.9 | 0.00 | 0.96 | 0.46 | 92 | 1007.9 |
| 20260509113824 | 52 | 155 | 0.0 | 0.9 | 0.00 | 0.96 | 0.46 | 92 | 1007.9 |
| 20260509112925 | 52 | 290 | 0.0 | 0.0 | 0.00 | 0.96 | 0.46 | 91 | 1008.1 |
| 20260509112119 | 52 | 278 | 0.9 | 0.9 | 0.00 | 0.96 | 0.46 | 91 | 1008.2 |
| 20260509112026 | 52 | 278 | 0.9 | 0.9 | 0.00 | 0.96 | 0.46 | 91 | 1008.2 |
| 20260509111157 | 53 | 233 | 0.0 | 0.9 | 0.00 | 0.96 | 0.46 | 91 | 1008.1 |
| 20260509111124 | 53 | 233 | 0.0 | 0.9 | 0.00 | 0.96 | 0.46 | 91 | 1008.1 |
| 20260509110225 | 53 | 200 | 0.9 | 1.7 | 0.00 | 0.96 | 0.46 | 91 | 1008.0 |
| 20260509105324 | 53 | 231 | 0.0 | 0.0 | 0.01 | 0.96 | 0.46 | 91 | 1007.9 |
| 20260509104456 | 53 | 266 | 0.0 | 0.9 | 0.01 | 0.96 | 0.46 | 91 | 1008.1 |
| 20260509104424 | 53 | 266 | 0.0 | 0.9 | 0.01 | 0.96 | 0.46 | 91 | 1008.1 |
| 20260509103602 | 53 | 286 | 0.9 | 0.9 | 0.02 | 0.96 | 0.46 | 91 | 1008.1 |
| 20260509103527 | 53 | 286 | 0.9 | 0.9 | 0.02 | 0.96 | 0.46 | 91 | 1008.1 |
| 20260509102627 | 53 | 246 | 0.9 | 1.7 | 0.02 | 0.96 | 0.46 | 91 | 1007.9 |
| 20260509101724 | 53 | 292 | 2.6 | 5.2 | 0.02 | 0.96 | 0.46 | 91 | 1008.0 |
| 20260509100824 | 53 | 304 | 2.6 | 4.3 | 0.02 | 0.96 | 0.46 | 90 | 1007.9 |
| 20260509095925 | 53 | 143 | 8.7 | 12.2 | 0.02 | 0.96 | 0.46 | 91 | 1007.0 |
| 20260509095024 | 53 | 231 | 1.7 | 4.3 | 0.01 | 0.95 | 0.45 | 91 | 1008.0 |
| 20260509094124 | 53 | 205 | 1.7 | 4.3 | 0.00 | 0.94 | 0.44 | 91 | 1008.2 |
| 20260509093225 | 53 | 194 | 2.6 | 5.2 | 0.00 | 0.94 | 0.44 | 91 | 1008.1 |
| 20260509092324 | 53 | 223 | 1.7 | 4.3 | 0.00 | 0.94 | 0.44 | 90 | 1008.1 |
| 20260509091424 | 53 | 235 | 1.7 | 2.6 | 0.01 | 0.94 | 0.44 | 90 | 1008.1 |
| 20260509090524 | 53 | 193 | 1.7 | 2.6 | 0.01 | 0.94 | 0.44 | 90 | 1007.9 |
| 20260509084723 | 53 | 219 | 0.9 | 2.6 | 0.01 | 0.94 | 0.44 | 90 | 1008.2 |
| 20260509083824 | 53 | 224 | 0.9 | 2.6 | 0.01 | 0.94 | 0.44 | 90 | 1008.1 |
| 20260509082924 | 53 | 236 | 1.7 | 5.2 | 0.02 | 0.94 | 0.44 | 90 | 1008.1 |
| 20260509082055 | 53 | 177 | 1.7 | 5.2 | 0.03 | 0.93 | 0.43 | 90 | 1008.2 |
| 20260509082023 | 53 | 177 | 1.7 | 5.2 | 0.03 | 0.93 | 0.43 | 90 | 1008.2 |
| 20260509081125 | 53 | 220 | 4.3 | 5.2 | 0.03 | 0.93 | 0.43 | 90 | 1008.2 |
| 20260509080224 | 53 | 166 | 2.6 | 4.3 | 0.04 | 0.93 | 0.43 | 90 | 1008.1 |
| 20260509075323 | 54 | 245 | 2.6 | 4.3 | 0.05 | 0.93 | 0.43 | 90 | 1008.3 |
| 20260509074424 | 54 | 224 | 2.6 | 5.2 | 0.05 | 0.93 | 0.43 | 90 | 1008.4 |
| 20260509073524 | 54 | 248 | 1.7 | 5.2 | 0.04 | 0.92 | 0.42 | 90 | 1008.8 |
| 20260509072625 | 54 | 267 | 0.9 | 2.6 | 0.05 | 0.92 | 0.42 | 90 | 1008.8 |
| 20260509071726 | 54 | 261 | 2.6 | 4.3 | 0.05 | 0.90 | 0.40 | 90 | 1008.9 |
| 20260509070824 | 54 | 270 | 0.9 | 2.6 | 0.07 | 0.90 | 0.40 | 90 | 1009.0 |
| 20260509065925 | 54 | 252 | 4.3 | 11.3 | 0.09 | 0.89 | 0.39 | 91 | 1009.0 |
| 20260509065025 | 54 | 265 | 4.3 | 5.2 | 0.09 | 0.88 | 0.38 | 91 | 1008.9 |
| 20260509064124 | 54 | 249 | 4.3 | 8.7 | 0.11 | 0.88 | 0.38 | 91 | 1009.2 |
| 20260509063224 | 54 | 250 | 2.6 | 6.1 | 0.13 | 0.87 | 0.37 | 91 | 1009.3 |
| 20260509062748 | 54 | 207 | 4.3 | 7.0 | 0.16 | 0.86 | 0.36 | 91 | 1009.4 |
| 20260509062325 | 54 | 207 | 4.3 | 7.0 | 0.16 | 0.86 | 0.36 | 91 | 1009.4 |
| 20260509061425 | 54 | 238 | 1.7 | 2.6 | 0.18 | 0.85 | 0.35 | 90 | 1009.4 |
| 20260509060524 | 54 | 195 | 2.6 | 4.3 | 0.19 | 0.83 | 0.33 | 90 | 1009.6 |
| 20260509055624 | 54 | 208 | 1.7 | 1.7 | 0.17 | 0.80 | 0.30 | 90 | 1009.5 |
| 20260509054726 | 54 | 243 | 2.6 | 2.6 | 0.17 | 0.78 | 0.28 | 90 | 1009.7 |
| 20260509053824 | 54 | 184 | 2.6 | 5.2 | 0.19 | 0.77 | 0.27 | 90 | 1009.7 |
| 20260509052925 | 54 | 216 | 2.6 | 10.4 | 0.16 | 0.72 | 0.22 | 90 | 1009.8 |
| 20260509052023 | 54 | 205 | 1.7 | 2.6 | 0.16 | 0.70 | 0.20 | 90 | 1009.7 |
| 20260509051126 | 54 | 129 | 1.7 | 4.3 | 0.13 | 0.66 | 0.16 | 90 | 1009.7 |
| 20260509050225 | 54 | 169 | 1.7 | 4.3 | 0.13 | 0.64 | 0.14 | 89 | 1009.8 |
| 20260509045323 | 54 | 194 | 2.6 | 4.3 | 0.00 | 0.63 | 0.13 | 89 | 1009.7 |
| 20260509044423 | 54 | 205 | 2.6 | 6.1 | 0.00 | 0.60 | 0.10 | 89 | 1009.9 |
| 20260509043524 | 54 | 198 | 2.6 | 6.1 | 0.00 | 0.58 | 0.08 | 89 | 1010.1 |
| 20260509042624 | 54 | 208 | 1.7 | 4.3 | 0.00 | 0.56 | 0.06 | 90 | 1010.2 |
| 20260509041725 | 54 | 246 | 1.7 | 4.3 | 0.00 | 0.54 | 0.04 | 90 | 1010.3 |
| 20260509035924 | 54 | 263 | 1.7 | 2.6 | 0.00 | 0.50 | 0.00 | 90 | 1010.5 |
| 20260509035024 | 54 | 255 | 2.6 | 5.2 | 0.16 | 0.48 | 0.48 | 90 | 1010.4 |
| 20260509034125 | 54 | 245 | 1.7 | 2.6 | 0.16 | 0.46 | 0.46 | 89 | 1010.3 |
| 20260509033223 | 55 | 271 | 1.7 | 7.0 | 0.13 | 0.42 | 0.42 | 89 | 1010.7 |
| 20260509032324 | 55 | 218 | 6.1 | 8.7 | 0.13 | 0.40 | 0.40 | 89 | 1010.4 |
| 20260509031425 | 55 | 222 | 2.6 | 6.1 | 0.14 | 0.37 | 0.37 | 89 | 1010.5 |